Location: ČR
(50.0000°N, 15.0000°E)
Time: 07:04:22
(UTC+02:00)

A-11 Canister half - Pass Details

Date: 22 March 2026
Orbit: 1514 x 1685 km, 47.2° (Epoch: 18 April)

Event Time Altitude Azimuth Distance (km) Brightness Sun altitude
Rises 17:28:07 0° 285° (WNW) 4,902 13.1 6.8°
Reaches altitude 10° 17:31:20 10° 281° (WNW) 3,928 12.9 6.3°
Maximum altitude 17:41:01 53° 209° (SSW) 1,998 10.0 4.8°
Drops below altitude 10° 17:50:42 10° 136° (SE) 3,933 10.8 3.2°
Sets 17:53:56 0° 132° (SE) 4,908 11.2 2.7°
